This is the latest recevied weather packets stored in our database for station/object W8DRH-13. If no packets are shown the sender has not sent any weather packets the latest 10 day(s).
| Time | Temp. | Humidity | Pressure | Rain* | Wind** | Luminosity | Snow |
|---|---|---|---|---|---|---|---|
| 1777583927 | 12.22° C | 51% | 1012.3 hPa | 0 mm | - | 490 W/m² | - |
| 1777583624 | 12.22° C | 54% | 1012.2 hPa | 0 mm | - | 125 W/m² | - |
| 1777583322 | 11.67° C | 59% | 1012.2 hPa | 0 mm | - | 503 W/m² | - |
| 1777583017 | 11.67° C | 55% | 1012.2 hPa | 0 mm | - | 138 W/m² | - |
| 1777582715 | 11.67° C | 56% | 1012.2 hPa | 0 mm | - | 114 W/m² | - |
| 1777582409 | 11.67° C | 53% | 1012.1 hPa | 0 mm | - | 165 W/m² | - |
| 1777582109 | 11.11° C | 56% | 1012.2 hPa | 0 mm | - | 134 W/m² | - |
| 1777581803 | 11.67° C | 56% | 1012.1 hPa | 0 mm | - | 121 W/m² | - |
| 1777581502 | 12.78° C | 55% | 1012.2 hPa | 0 mm | - | 108 W/m² | - |
| 1777581198 | 12.22° C | 55% | 1012.3 hPa | 0 mm | - | 658 W/m² | - |
| 1777580892 | 11.67° C | 55% | 1012.2 hPa | 0 mm | - | 556 W/m² | - |
| 1777580587 | 12.78° C | 55% | 1012.4 hPa | 0 mm | - | 178 W/m² | - |
| 1777580283 | 12.78° C | 52% | 1012.2 hPa | 0 mm | - | 677 W/m² | - |
| 1777579980 | 12.22° C | 51% | 1012.3 hPa | 0 mm | - | 532 W/m² | - |
| 1777579675 | 12.22° C | 51% | 1012.3 hPa | 0 mm | - | 773 W/m² | - |
| 1777579374 | 12.78° C | 50% | 1012.2 hPa | 0 mm | - | 259 W/m² | - |
| 1777579070 | 12.78° C | 55% | 1012.2 hPa | 0 mm | - | 725 W/m² | - |
| 1777578765 | 12.22° C | 54% | 1012.3 hPa | 0 mm | - | 720 W/m² | - |
| 1777578464 | 12.22° C | 55% | 1012.3 hPa | 0 mm | - | 765 W/m² | - |
| 1777578160 | 12.22° C | 53% | 1012.1 hPa | 0 mm | - | 320 W/m² | - |
| 1777577856 | 11.67° C | 62% | 1012.5 hPa | 0 mm | - | 754 W/m² | - |
| 1777577552 | 10.56° C | 56% | 1012.5 hPa | 0 mm | - | 266 W/m² | - |
| 1777577249 | 11.11° C | 57% | 1012.5 hPa | 0 mm | - | 155 W/m² | - |
| 1777576945 | 11.11° C | 59% | 1012.5 hPa | 0 mm | - | 168 W/m² | - |
| 1777576641 | 11.67° C | 63% | 1012.4 hPa | 0 mm | - | 165 W/m² | - |
* Rain latest hour (hover to see other rain measurements)
** Current wind speed in m/s (hover to see current wind gust speed)